| time (UTC) | temp C | wind direction | speed KPH | gust KPH | rain 1hr cm | rain 24hr cm | rain mn cm | humidity % | barometer mb |
| 20260502130546 | 10 | 0.0 | 0.0 | 0.00 | 0.00 | 0.00 | 87 | 1016.9 | |
| 20260502123601 | 10 | 0.0 | 0.0 | 0.00 | 0.00 | 0.00 | 87 | 1017.2 | |
| 20260502122540 | 10 | 0.0 | 0.0 | 0.00 | 0.00 | 0.00 | 87 | 1017.0 | |
| 20260502121537 | 10 | 0.0 | 0.0 | 0.00 | 0.00 | 0.00 | 87 | 1017.0 | |
| 20260502120536 | 10 | 0.0 | 0.0 | 0.00 | 0.00 | 0.00 | 87 | 1017.0 | |
| 20260502115538 | 10 | 180 | 0.0 | 1.6 | 0.00 | 0.00 | 0.00 | 87 | 1017.3 |
| 20260502114532 | 10 | 0.0 | 0.0 | 0.00 | 0.00 | 0.00 | 86 | 1017.3 | |
| 20260502113551 | 10 | 0.0 | 0.0 | 0.00 | 0.00 | 0.00 | 87 | 1017.3 | |
| 20260502112529 | 10 | 277 | 1.6 | 3.2 | 0.00 | 0.00 | 0.00 | 88 | 1016.9 |
| 20260502111527 | 10 | 172 | 1.6 | 4.8 | 0.00 | 0.00 | 0.00 | 87 | 1017.2 |
| 20260502110545 | 10 | 274 | 0.0 | 3.2 | 0.00 | 0.00 | 0.00 | 87 | 1017.1 |
| 20260502105523 | 10 | 237 | 1.6 | 4.8 | 0.00 | 0.00 | 0.00 | 86 | 1017.4 |
| 20260502104521 | 10 | 246 | 3.2 | 6.4 | 0.00 | 0.00 | 0.00 | 86 | 1017.5 |
| 20260502103520 | 10 | 233 | 3.2 | 6.4 | 0.00 | 0.00 | 0.00 | 86 | 1017.7 |
| 20260502102518 | 10 | 226 | 3.2 | 6.4 | 0.00 | 0.00 | 0.00 | 85 | 1017.7 |
| 20260502101517 | 10 | 229 | 1.6 | 4.8 | 0.00 | 0.00 | 0.00 | 84 | 1017.5 |
| 20260502100618 | 10 | 260 | 0.0 | 1.6 | 0.00 | 0.00 | 0.00 | 84 | 1016.9 |
| 20260502090645 | 11 | 275 | 0.0 | 3.2 | 0.00 | 0.00 | 0.00 | 83 | 1016.8 |
| 20260502070605 | 12 | 255 | 1.6 | 3.2 | 0.00 | 0.00 | 0.00 | 76 | 1016.9 |
| 20260502065542 | 12 | 246 | 3.2 | 6.4 | 0.00 | 0.00 | 0.00 | 76 | 1016.7 |
| 20260502064540 | 12 | 241 | 4.8 | 6.4 | 0.00 | 0.00 | 0.00 | 75 | 1016.8 |
| 20260502063619 | 13 | 235 | 3.2 | 4.8 | 0.00 | 0.00 | 0.00 | 74 | 1016.8 |
| 20260502062557 | 13 | 236 | 6.4 | 9.7 | 0.00 | 0.00 | 0.00 | 73 | 1016.7 |
| 20260502061536 | 13 | 230 | 4.8 | 11.3 | 0.00 | 0.00 | 0.00 | 73 | 1016.7 |
| 20260502060534 | 13 | 242 | 4.8 | 9.7 | 0.00 | 0.00 | 0.00 | 73 | 1016.5 |
| 20260502055532 | 14 | 230 | 4.8 | 11.3 | 0.00 | 0.00 | 0.00 | 72 | 1016.4 |
| 20260502054530 | 15 | 244 | 6.4 | 16.1 | 0.00 | 0.00 | 0.00 | 70 | 1016.4 |
| 20260502053529 | 15 | 234 | 4.8 | 16.1 | 0.00 | 0.00 | 0.00 | 68 | 1016.4 |
| 20260502052530 | 15 | 246 | 4.8 | 9.7 | 0.00 | 0.00 | 0.00 | 67 | 1016.2 |
| 20260502051525 | 16 | 244 | 1.6 | 6.4 | 0.00 | 0.00 | 0.00 | 64 | 1016.1 |
| 20260502050523 | 16 | 0.0 | 0.0 | 0.00 | 0.00 | 0.00 | 63 | 1016.1 | |
| 20260502045522 | 16 | 266 | 1.6 | 4.8 | 0.00 | 0.00 | 0.00 | 63 | 1016.1 |
| 20260502044520 | 16 | 268 | 1.6 | 4.8 | 0.00 | 0.00 | 0.00 | 61 | 1015.8 |
| 20260502043518 | 16 | 245 | 3.2 | 9.7 | 0.00 | 0.00 | 0.00 | 60 | 1015.8 |
| 20260502042537 | 16 | 281 | 0.0 | 1.6 | 0.00 | 0.00 | 0.00 | 60 | 1015.6 |
| 20260502041615 | 16 | 283 | 0.0 | 1.6 | 0.00 | 0.00 | 0.00 | 60 | 1015.6 |
| 20260502040613 | 16 | 274 | 0.0 | 1.6 | 0.00 | 0.00 | 0.00 | 60 | 1015.5 |
| 20260502035631 | 16 | 311 | 0.0 | 1.6 | 0.00 | 0.00 | 0.00 | 60 | 1015.4 |
| 20260502034610 | 16 | 347 | 1.6 | 4.8 | 0.00 | 0.00 | 0.00 | 60 | 1015.2 |
| 20260502033608 | 16 | 297 | 0.0 | 1.6 | 0.00 | 0.00 | 0.00 | 60 | 1015.2 |
| 20260502032607 | 17 | 331 | 3.2 | 11.3 | 0.00 | 0.00 | 0.00 | 59 | 1015.1 |
| 20260502031625 | 17 | 342 | 1.6 | 4.8 | 0.00 | 0.00 | 0.00 | 59 | 1015.0 |
| 20260502030603 | 17 | 316 | 1.6 | 6.4 | 0.00 | 0.00 | 0.00 | 58 | 1014.8 |
| 20260502025622 | 17 | 328 | 1.6 | 6.4 | 0.00 | 0.00 | 0.00 | 56 | 1014.7 |
| 20260502024600 | 18 | 336 | 1.6 | 4.8 | 0.00 | 0.00 | 0.00 | 55 | 1014.6 |
| 20260502023557 | 18 | 288 | 0.0 | 3.2 | 0.00 | 0.00 | 0.00 | 55 | 1014.6 |
| 20260502022556 | 18 | 334 | 3.2 | 9.7 | 0.00 | 0.00 | 0.00 | 54 | 1014.5 |
| 20260502021555 | 18 | 333 | 1.6 | 4.8 | 0.00 | 0.00 | 0.00 | 53 | 1014.5 |
| 20260502020613 | 19 | 348 | 3.2 | 9.7 | 0.00 | 0.00 | 0.00 | 53 | 1014.5 |
| 20260502015551 | 20 | 349 | 4.8 | 12.9 | 0.00 | 0.00 | 0.00 | 52 | 1014.4 |
| 20260502014549 | 20 | 1 | 4.8 | 12.9 | 0.00 | 0.00 | 0.00 | 52 | 1014.3 |
| 20260502013548 | 20 | 337 | 6.4 | 11.3 | 0.00 | 0.00 | 0.00 | 51 | 1014.4 |
| 20260502012546 | 20 | 359 | 4.8 | 12.9 | 0.00 | 0.00 | 0.00 | 50 | 1014.4 |
| 20260502011544 | 21 | 350 | 4.8 | 9.7 | 0.00 | 0.00 | 0.00 | 51 | 1014.4 |
| 20260502010542 | 21 | 5 | 6.4 | 12.9 | 0.00 | 0.00 | 0.00 | 51 | 1014.4 |
| 20260502005540 | 21 | 336 | 4.8 | 11.3 | 0.00 | 0.00 | 0.00 | 51 | 1014.4 |
| 20260502004539 | 21 | 332 | 4.8 | 11.3 | 0.00 | 0.00 | 0.00 | 51 | 1014.4 |
| 20260502003536 | 21 | 0 | 4.8 | 11.3 | 0.00 | 0.00 | 0.00 | 50 | 1014.3 |
| 20260502002535 | 21 | 3 | 6.4 | 9.7 | 0.00 | 0.00 | 0.00 | 49 | 1014.4 |
| 20260502001533 | 22 | 348 | 4.8 | 9.7 | 0.00 | 0.00 | 0.00 | 49 | 1014.4 |
| 20260502000531 | 22 | 338 | 4.8 | 11.3 | 0.00 | 0.00 | 0.00 | 49 | 1014.3 |
| 20260501235530 | 22 | 357 | 4.8 | 11.3 | 0.00 | 0.00 | 0.00 | 48 | 1014.4 |
| 20260501234528 | 22 | 355 | 6.4 | 11.3 | 0.00 | 0.00 | 0.00 | 48 | 1014.3 |
| 20260501233546 | 22 | 11 | 4.8 | 6.4 | 0.00 | 0.00 | 0.00 | 47 | 1014.4 |
| 20260501232545 | 22 | 347 | 1.6 | 6.4 | 0.00 | 0.00 | 0.00 | 48 | 1014.4 |
| 20260501231523 | 22 | 11 | 4.8 | 11.3 | 0.00 | 0.00 | 0.00 | 46 | 1014.4 |
| 20260501230521 | 22 | 30 | 1.6 | 6.4 | 0.00 | 0.00 | 0.00 | 48 | 1014.7 |
| 20260501225519 | 22 | 27 | 1.6 | 4.8 | 0.00 | 0.00 | 0.00 | 47 | 1014.7 |
| 20260501224518 | 22 | 353 | 4.8 | 9.7 | 0.00 | 0.00 | 0.00 | 47 | 1014.8 |
| 20260501223516 | 22 | 13 | 3.2 | 4.8 | 0.00 | 0.00 | 0.00 | 49 | 1015.0 |
| 20260501222614 | 22 | 357 | 1.6 | 6.4 | 0.00 | 0.00 | 0.00 | 47 | 1015.1 |
| 20260501221613 | 22 | 10 | 3.2 | 6.4 | 0.00 | 0.00 | 0.00 | 48 | 1015.2 |
| 20260501220611 | 22 | 17 | 3.2 | 4.8 | 0.00 | 0.00 | 0.00 | 48 | 1015.3 |
| 20260501215611 | 21 | 353 | 1.6 | 3.2 | 0.00 | 0.00 | 0.00 | 49 | 1015.4 |
| 20260501214608 | 21 | 333 | 3.2 | 4.8 | 0.00 | 0.00 | 0.00 | 49 | 1015.5 |
| 20260501213606 | 21 | 8 | 3.2 | 6.4 | 0.00 | 0.00 | 0.00 | 49 | 1015.5 |
| 20260501212624 | 21 | 5 | 3.2 | 9.7 | 0.00 | 0.00 | 0.00 | 49 | 1015.6 |
| 20260501211602 | 21 | 4 | 3.2 | 11.3 | 0.00 | 0.00 | 0.00 | 49 | 1015.6 |
| 20260501210600 | 21 | 28 | 4.8 | 9.7 | 0.00 | 0.00 | 0.00 | 49 | 1015.7 |
| 20260501205558 | 20 | 20 | 3.2 | 9.7 | 0.00 | 0.00 | 0.00 | 49 | 1015.8 |
| 20260501204557 | 20 | 6 | 6.4 | 12.9 | 0.00 | 0.00 | 0.00 | 49 | 1015.7 |
| 20260501203555 | 20 | 8 | 1.6 | 6.4 | 0.00 | 0.00 | 0.00 | 50 | 1015.7 |
| 20260501202553 | 20 | 337 | 4.8 | 11.3 | 0.00 | 0.00 | 0.00 | 49 | 1016.0 |
| 20260501201552 | 19 | 346 | 6.4 | 11.3 | 0.00 | 0.00 | 0.00 | 51 | 1016.0 |
| 20260501200550 | 20 | 4 | 6.4 | 14.5 | 0.00 | 0.00 | 0.00 | 52 | 1016.1 |
| 20260501195628 | 19 | 1 | 6.4 | 11.3 | 0.00 | 0.00 | 0.00 | 53 | 1016.0 |
| 20260501194546 | 19 | 16 | 6.4 | 11.3 | 0.00 | 0.00 | 0.00 | 54 | 1016.0 |
| 20260501193544 | 18 | 352 | 6.4 | 12.9 | 0.00 | 0.00 | 0.00 | 52 | 1016.2 |
| 20260501192543 | 18 | 16 | 4.8 | 11.3 | 0.00 | 0.00 | 0.00 | 54 | 1016.2 |
| 20260501191541 | 18 | 9 | 4.8 | 9.7 | 0.00 | 0.00 | 0.00 | 55 | 1016.3 |
| 20260501190540 | 18 | 0 | 8.0 | 17.7 | 0.00 | 0.00 | 0.00 | 53 | 1016.4 |
| 20260501185538 | 18 | 353 | 6.4 | 14.5 | 0.00 | 0.00 | 0.00 | 56 | 1016.4 |
| 20260501184536 | 18 | 354 | 8.0 | 12.9 | 0.00 | 0.00 | 0.00 | 57 | 1016.6 |
| 20260501183534 | 18 | 4 | 6.4 | 9.7 | 0.00 | 0.00 | 0.00 | 57 | 1016.7 |
| 20260501182533 | 18 | 337 | 3.2 | 6.4 | 0.00 | 0.00 | 0.00 | 58 | 1016.6 |
| 20260501181611 | 18 | 1 | 6.4 | 11.3 | 0.00 | 0.00 | 0.00 | 59 | 1016.7 |
| 20260501180529 | 17 | 333 | 1.6 | 3.2 | 0.00 | 0.00 | 0.00 | 62 | 1016.8 |
| 20260501175528 | 17 | 347 | 1.6 | 4.8 | 0.00 | 0.00 | 0.00 | 63 | 1016.7 |
| 20260501174526 | 17 | 330 | 3.2 | 6.4 | 0.00 | 0.00 | 0.00 | 67 | 1016.8 |
| 20260501173524 | 17 | 13 | 0.0 | 3.2 | 0.00 | 0.00 | 0.00 | 68 | 1016.8 |
| 20260501172522 | 16 | 5 | 3.2 | 6.4 | 0.00 | 0.00 | 0.00 | 68 | 1016.9 |
| 20260501171520 | 16 | 357 | 1.6 | 6.4 | 0.00 | 0.00 | 0.00 | 68 | 1016.9 |
| 20260501170519 | 16 | 358 | 3.2 | 4.8 | 0.00 | 0.00 | 0.00 | 67 | 1016.9 |
| 20260501165517 | 16 | 6 | 3.2 | 9.7 | 0.00 | 0.00 | 0.00 | 68 | 1017.0 |
| 20260501164616 | 16 | 23 | 1.6 | 6.4 | 0.00 | 0.00 | 0.00 | 68 | 1017.1 |
| 20260501163633 | 16 | 59 | 1.6 | 3.2 | 0.00 | 0.00 | 0.00 | 69 | 1017.1 |
| 20260501162612 | 16 | 17 | 1.6 | 3.2 | 0.00 | 0.00 | 0.00 | 70 | 1017.3 |
| 20260501161610 | 16 | 9 | 3.2 | 4.8 | 0.00 | 0.00 | 0.00 | 71 | 1017.4 |
| 20260501160608 | 15 | 19 | 1.6 | 4.8 | 0.00 | 0.00 | 0.00 | 71 | 1017.4 |
| 20260501155606 | 15 | 0 | 0.0 | 1.6 | 0.00 | 0.00 | 0.00 | 70 | 1017.4 |
| 20260501154605 | 15 | 344 | 0.0 | 1.6 | 0.00 | 0.00 | 0.00 | 71 | 1017.4 |
| 20260501153603 | 15 | 19 | 1.6 | 3.2 | 0.00 | 0.00 | 0.00 | 70 | 1017.4 |
| 20260501152601 | 15 | 13 | 3.2 | 4.8 | 0.00 | 0.00 | 0.00 | 69 | 1017.4 |
| 20260501151600 | 16 | 359 | 1.6 | 3.2 | 0.00 | 0.00 | 0.00 | 68 | 1017.4 |
| 20260501150558 | 17 | 10 | 0.0 | 1.6 | 0.00 | 0.00 | 0.00 | 66 | 1017.4 |
| 20260501145556 | 17 | 15 | 1.6 | 3.2 | 0.00 | 0.00 | 0.00 | 64 | 1017.4 |
| 20260501144615 | 18 | 0.0 | 0.0 | 0.00 | 0.00 | 0.00 | 72 | 1017.2 | |
| 20260501143553 | 15 | 0.0 | 0.0 | 0.00 | 0.00 | 0.00 | 82 | 1017.1 | |
| 20260501142551 | 11 | 0.0 | 0.0 | 0.00 | 0.00 | 0.00 | 85 | 1017.0 | |
| 20260501141610 | 10 | 0.0 | 0.0 | 0.00 | 0.00 | 0.00 | 85 | 1016.9 | |
| 20260501140547 | 10 | 0.0 | 0.0 | 0.00 | 0.00 | 0.00 | 85 | 1016.9 |